Tracking 21607 objects as of 23-Oct-2020
HD Live streaming from Space Station
objects crossing your sky now

COSMOS 1720

Track COSMOS 1720 now!
10-day predictions
COSMOS 1720 is classified as:


NORAD ID: 16453
Int'l Code: 1986-002E
Perigee: 1,447.5 km
Apogee: 1,490.8 km
Inclination: 74.0 °
Period: 115.1 minutes
Semi major axis: 7840 km
RCS: 0.701 m2 (medium)
Launch date: January 9, 1986
Source: Commonwealth of Independent States (former USSR) (CIS)
Launch site: PLESETSK MISSILE AND SPACE COMPLEX (PKMTR)
aabbcc
Your satellite tracking list
Your tracking list is empty




NASA's NSSDC Master Catalog

Two Line Element Set (TLE):
1 16453U 86002E   20296.90090209 -.00000020 +00000-0 -27861-4 0  9995
2 16453 073.9860 135.5364 0027596 145.6491 316.5466 12.50595285588172
Source of the keplerian elements: AFSPC